contact:dominique.lefevre@mio.osupytheas.fr, maurice.libes@osupytheas.fr, didier.mallarino@osupytheas.fr
Project:EMSO http://www.emso-fr.org/EMSO-France
Depth: 2436.0 m
Title:EMSO Ligure Ouest : Data MII capteur MICROCAT
DateTime_Computer,Latitude,Longitude,Temperature,Conductivity,Pressure,DateTime_Instrument
DateTime_Computer,Latitude,Longitude,degC,S m-1,dbar,DateTime_Instrument
2020-03-31T00:01:14Z,42.805,6.029,13.2965,4.59968,2470.063,2020-3-31T02:01:52Z
2020-03-31T00:04:17Z,42.805,6.029,13.2964,4.59968,2470.1,2020-3-31T02:04:55Z
2020-03-31T00:07:20Z,42.805,6.029,13.2967,4.59968,2470.087,2020-3-31T02:07:59Z
2020-03-31T00:10:23Z,42.805,6.029,13.2966,4.59968,2470.063,2020-3-31T02:11:02Z
2020-03-31T00:13:27Z,42.805,6.029,13.2967,4.59968,2470.11,2020-3-31T02:14:05Z
2020-03-31T00:16:30Z,42.805,6.029,13.2966,4.59968,2470.11,2020-3-31T02:17:08Z
2020-03-31T00:19:33Z,42.805,6.029,13.2967,4.59968,2470.087,2020-3-31T02:20:12Z
2020-03-31T00:22:37Z,42.805,6.029,13.2968,4.59968,2470.1,2020-3-31T02:23:15Z
2020-03-31T00:25:40Z,42.805,6.029,13.2966,4.59968,2470.04,2020-3-31T02:26:18Z
2020-03-31T00:28:43Z,42.805,6.029,13.2964,4.59968,2470.063,2020-3-31T02:29:22Z
2020-03-31T00:31:47Z,42.805,6.029,13.2969,4.59968,2470.1,2020-3-31T02:32:25Z
2020-03-31T00:34:50Z,42.805,6.029,13.2964,4.59968,2470.063,2020-3-31T02:35:28Z
2020-03-31T00:37:53Z,42.805,6.029,13.2965,4.59969,2470.1,2020-3-31T02:38:31Z
2020-03-31T00:40:57Z,42.805,6.029,13.2964,4.59968,2470.077,2020-3-31T02:41:35Z
2020-03-31T00:44:00Z,42.805,6.029,13.2966,4.59968,2470.063,2020-3-31T02:44:38Z
2020-03-31T00:47:03Z,42.805,6.029,13.2963,4.59968,2470.087,2020-3-31T02:47:41Z
2020-03-31T00:50:06Z,42.805,6.029,13.2967,4.59967,2470.11,2020-3-31T02:50:45Z
2020-03-31T00:53:09Z,42.805,6.029,13.2967,4.59967,2470.087,2020-3-31T02:53:48Z
2020-03-31T00:56:13Z,42.805,6.029,13.2965,4.59971,2470.063,2020-3-31T02:56:51Z
2020-03-31T00:59:16Z,42.805,6.029,13.2961,4.59968,2470.087,2020-3-31T02:59:54Z
2020-03-31T01:02:19Z,42.805,6.029,13.2964,4.59968,2470.077,2020-3-31T03:02:58Z
2020-03-31T01:05:23Z,42.805,6.029,13.2964,4.59968,2470.124,2020-3-31T03:06:01Z
2020-03-31T01:08:26Z,42.805,6.029,13.2966,4.59968,2470.077,2020-3-31T03:09:04Z
2020-03-31T01:11:29Z,42.805,6.029,13.2964,4.59967,2470.053,2020-3-31T03:12:08Z
2020-03-31T01:14:33Z,42.805,6.029,13.2961,4.59967,2470.03,2020-3-31T03:15:11Z
2020-03-31T01:17:36Z,42.805,6.029,13.2963,4.59968,2470.063,2020-3-31T03:18:14Z
2020-03-31T01:20:39Z,42.805,6.029,13.2967,4.59968,2470.04,2020-3-31T03:21:17Z
2020-03-31T01:23:42Z,42.805,6.029,13.2966,4.59968,2470.077,2020-3-31T03:24:21Z
2020-03-31T01:26:46Z,42.805,6.029,13.2967,4.59969,2470.077,2020-3-31T03:27:24Z
2020-03-31T01:29:49Z,42.805,6.029,13.2967,4.59969,2470.053,2020-3-31T03:30:27Z
2020-03-31T01:32:52Z,42.805,6.029,13.2965,4.59968,2470.04,2020-3-31T03:33:30Z
2020-03-31T01:35:55Z,42.805,6.029,13.2964,4.59968,2470.063,2020-3-31T03:36:34Z
2020-03-31T01:38:59Z,42.805,6.029,13.2964,4.59968,2470.063,2020-3-31T03:39:37Z
2020-03-31T01:42:02Z,42.805,6.029,13.2965,4.59968,2470.063,2020-3-31T03:42:40Z
2020-03-31T01:45:05Z,42.805,6.029,13.2967,4.59967,2470.063,2020-3-31T03:45:43Z
2020-03-31T01:48:08Z,42.805,6.029,13.2968,4.59966,2470.077,2020-3-31T03:48:47Z
2020-03-31T01:51:11Z,42.805,6.029,13.2968,4.59968,2470.077,2020-3-31T03:51:50Z
2020-03-31T01:54:15Z,42.805,6.029,13.2966,4.59968,2470.077,2020-3-31T03:54:53Z
2020-03-31T01:57:18Z,42.805,6.029,13.2964,4.59969,2470.087,2020-3-31T03:57:56Z
2020-03-31T02:00:21Z,42.805,6.029,13.2967,4.59970,2470.053,2020-3-31T04:01:00Z
2020-03-31T02:03:24Z,42.805,6.029,13.2961,4.59970,2470.04,2020-3-31T04:04:03Z
2020-03-31T02:06:28Z,42.805,6.029,13.2971,4.59971,2470.077,2020-3-31T04:07:06Z
2020-03-31T02:09:31Z,42.805,6.029,13.2964,4.59969,2470.03,2020-3-31T04:10:09Z
2020-03-31T02:12:34Z,42.805,6.029,13.2967,4.59968,2470.04,2020-3-31T04:13:12Z
2020-03-31T02:15:37Z,42.805,6.029,13.2965,4.59968,2470.017,2020-3-31T04:16:16Z
2020-03-31T02:18:41Z,42.805,6.029,13.2967,4.59971,2470.053,2020-3-31T04:19:19Z
2020-03-31T02:21:44Z,42.805,6.029,13.2965,4.59968,2470.053,2020-3-31T04:22:22Z
2020-03-31T02:24:47Z,42.805,6.029,13.2967,4.59968,2470.017,2020-3-31T04:25:25Z
2020-03-31T02:27:50Z,42.805,6.029,13.2966,4.59970,2470.053,2020-3-31T04:28:29Z
2020-03-31T02:30:53Z,42.805,6.029,13.2963,4.59967,2470.04,2020-3-31T04:31:32Z
2020-03-31T02:33:57Z,42.805,6.029,13.2967,4.59968,2470.017,2020-3-31T04:34:35Z
2020-03-31T02:37:00Z,42.805,6.029,13.2965,4.59968,2470.03,2020-3-31T04:37:38Z
2020-03-31T02:40:03Z,42.805,6.029,13.2964,4.59969,2470.053,2020-3-31T04:40:41Z
2020-03-31T02:43:06Z,42.805,6.029,13.2963,4.59967,2469.97,2020-3-31T04:43:45Z
2020-03-31T02:46:10Z,42.805,6.029,13.2965,4.59969,2469.993,2020-3-31T04:46:48Z
2020-03-31T02:49:13Z,42.805,6.029,13.2967,4.59968,2470.017,2020-3-31T04:49:51Z
2020-03-31T02:52:16Z,42.805,6.029,13.2969,4.59969,2470.017,2020-3-31T04:52:54Z
2020-03-31T02:55:19Z,42.805,6.029,13.2965,4.59968,2470.03,2020-3-31T04:55:58Z
2020-03-31T02:58:23Z,42.805,6.029,13.2970,4.59968,2470.017,2020-3-31T04:59:01Z
2020-03-31T03:01:26Z,42.805,6.029,13.2968,4.59969,2470.017,2020-3-31T05:02:04Z
2020-03-31T03:04:29Z,42.805,6.029,13.2964,4.59968,2470.04,2020-3-31T05:05:07Z
2020-03-31T03:07:32Z,42.805,6.029,13.2970,4.59968,2470.053,2020-3-31T05:08:11Z
2020-03-31T03:10:36Z,42.805,6.029,13.2965,4.59970,2470.017,2020-3-31T05:11:14Z
2020-03-31T03:13:39Z,42.805,6.029,13.2968,4.59968,2470.03,2020-3-31T05:14:17Z
2020-03-31T03:16:42Z,42.805,6.029,13.2967,4.59971,2470.017,2020-3-31T05:17:21Z
2020-03-31T03:19:45Z,42.805,6.029,13.2967,4.59968,2470.017,2020-3-31T05:20:24Z
2020-03-31T03:22:49Z,42.805,6.029,13.2964,4.59970,2470.053,2020-3-31T05:23:27Z
2020-03-31T03:25:52Z,42.805,6.029,13.2966,4.59968,2470.017,2020-3-31T05:26:30Z
2020-03-31T03:28:55Z,42.805,6.029,13.2969,4.59969,2470.03,2020-3-31T05:29:33Z
2020-03-31T03:31:58Z,42.805,6.029,13.2969,4.59969,2470.017,2020-3-31T05:32:37Z
2020-03-31T03:35:02Z,42.805,6.029,13.2968,4.59968,2470.04,2020-3-31T05:35:40Z
2020-03-31T03:38:05Z,42.805,6.029,13.2965,4.59968,2470.053,2020-3-31T05:38:43Z
2020-03-31T03:41:08Z,42.805,6.029,13.2964,4.59968,2470.03,2020-3-31T05:41:46Z
2020-03-31T03:44:11Z,42.805,6.029,13.2968,4.59972,2470.017,2020-3-31T05:44:50Z
2020-03-31T03:47:14Z,42.805,6.029,13.2963,4.59968,2470.03,2020-3-31T05:47:53Z
2020-03-31T03:50:18Z,42.805,6.029,13.2966,4.59970,2470.03,2020-3-31T05:50:56Z
2020-03-31T03:53:21Z,42.805,6.029,13.2967,4.59968,2470.017,2020-3-31T05:53:59Z
2020-03-31T03:56:24Z,42.805,6.029,13.2964,4.59968,2470.04,2020-3-31T05:57:03Z
2020-03-31T03:59:27Z,42.805,6.029,13.2962,4.59970,2470.03,2020-3-31T06:00:06Z
2020-03-31T04:02:31Z,42.805,6.029,13.2966,4.59969,2470.017,2020-3-31T06:03:09Z
2020-03-31T04:05:34Z,42.805,6.029,13.2970,4.59968,2469.993,2020-3-31T06:06:12Z
2020-03-31T04:08:37Z,42.805,6.029,13.2965,4.59969,2469.993,2020-3-31T06:09:15Z
2020-03-31T04:11:40Z,42.805,6.029,13.2967,4.59969,2470.017,2020-3-31T06:12:19Z
2020-03-31T04:14:44Z,42.805,6.029,13.2967,4.59969,2470.017,2020-3-31T06:15:22Z
2020-03-31T04:17:47Z,42.805,6.029,13.2969,4.59969,2469.993,2020-3-31T06:18:25Z
2020-03-31T04:20:50Z,42.805,6.029,13.2968,4.59970,2470.04,2020-3-31T06:21:29Z
2020-03-31T04:23:53Z,42.805,6.029,13.2967,4.59971,2470.017,2020-3-31T06:24:32Z
2020-03-31T04:26:57Z,42.805,6.029,13.2964,4.59969,2470.017,2020-3-31T06:27:35Z
2020-03-31T04:30:00Z,42.805,6.029,13.2967,4.59971,2469.993,2020-3-31T06:30:38Z
2020-03-31T04:33:03Z,42.805,6.029,13.2964,4.59970,2470.007,2020-3-31T06:33:42Z
2020-03-31T04:36:06Z,42.805,6.029,13.2967,4.59968,2470.017,2020-3-31T06:36:45Z
2020-03-31T04:39:10Z,42.805,6.029,13.2964,4.59969,2470.017,2020-3-31T06:39:48Z
2020-03-31T04:42:13Z,42.805,6.029,13.2966,4.59968,2470.017,2020-3-31T06:42:51Z
2020-03-31T04:45:16Z,42.805,6.029,13.2968,4.59968,2470.007,2020-3-31T06:45:55Z
2020-03-31T04:48:19Z,42.805,6.029,13.2966,4.59969,2470.007,2020-3-31T06:48:58Z
2020-03-31T04:51:23Z,42.805,6.029,13.2965,4.59970,2470.017,2020-3-31T06:52:01Z
2020-03-31T04:54:26Z,42.805,6.029,13.2964,4.59969,2470.017,2020-3-31T06:55:04Z
2020-03-31T04:57:29Z,42.805,6.029,13.2966,4.59970,2469.993,2020-3-31T06:58:07Z
2020-03-31T05:00:32Z,42.805,6.029,13.2967,4.59968,2470.017,2020-3-31T07:01:11Z
2020-03-31T05:03:36Z,42.805,6.029,13.2964,4.59968,2470.04,2020-3-31T07:04:14Z
2020-03-31T05:06:39Z,42.805,6.029,13.2964,4.59968,2469.97,2020-3-31T07:07:17Z
2020-03-31T05:09:42Z,42.805,6.029,13.2967,4.59968,2470.017,2020-3-31T07:10:20Z
2020-03-31T05:12:45Z,42.805,6.029,13.2966,4.59968,2469.993,2020-3-31T07:13:24Z
2020-03-31T05:15:48Z,42.805,6.029,13.2968,4.59971,2470.017,2020-3-31T07:16:27Z
2020-03-31T05:18:52Z,42.805,6.029,13.2965,4.59970,2469.993,2020-3-31T07:19:30Z
2020-03-31T05:21:55Z,42.805,6.029,13.2965,4.59970,2470.017,2020-3-31T07:22:33Z
2020-03-31T05:24:58Z,42.805,6.029,13.2964,4.59968,2469.993,2020-3-31T07:25:37Z
2020-03-31T05:28:01Z,42.805,6.029,13.2967,4.59971,2469.993,2020-3-31T07:28:40Z
2020-03-31T05:31:05Z,42.805,6.029,13.2965,4.59969,2470.017,2020-3-31T07:31:43Z
2020-03-31T05:34:08Z,42.805,6.029,13.2968,4.59970,2470.017,2020-3-31T07:34:46Z
2020-03-31T05:37:11Z,42.805,6.029,13.2966,4.59969,2470.007,2020-3-31T07:37:49Z
2020-03-31T05:40:14Z,42.805,6.029,13.2964,4.59970,2470.017,2020-3-31T07:40:53Z
2020-03-31T05:43:18Z,42.805,6.029,13.2966,4.59969,2470.04,2020-3-31T07:43:56Z
2020-03-31T05:46:21Z,42.805,6.029,13.2965,4.59969,2469.993,2020-3-31T07:46:59Z
2020-03-31T05:49:24Z,42.805,6.029,13.2967,4.59968,2469.993,2020-3-31T07:50:02Z
2020-03-31T05:52:27Z,42.805,6.029,13.2966,4.59969,2469.984,2020-3-31T07:53:06Z
2020-03-31T05:55:31Z,42.805,6.029,13.2967,4.59970,2470.017,2020-3-31T07:56:09Z
2020-03-31T05:58:34Z,42.805,6.029,13.2964,4.59968,2469.993,2020-3-31T07:59:12Z
2020-03-31T06:01:37Z,42.805,6.029,13.2963,4.59969,2470.03,2020-3-31T08:02:15Z
2020-03-31T06:04:40Z,42.805,6.029,13.2964,4.59968,2470.007,2020-3-31T08:05:19Z
2020-03-31T06:07:43Z,42.805,6.029,13.2966,4.59969,2470.03,2020-3-31T08:08:22Z
2020-03-31T06:10:47Z,42.805,6.029,13.2966,4.59972,2470.04,2020-3-31T08:11:25Z
2020-03-31T06:13:50Z,42.805,6.029,13.2972,4.59970,2470.03,2020-3-31T08:14:28Z
2020-03-31T06:16:53Z,42.805,6.029,13.2968,4.59968,2469.97,2020-3-31T08:17:32Z
2020-03-31T06:19:56Z,42.805,6.029,13.2967,4.59969,2469.993,2020-3-31T08:20:35Z
2020-03-31T06:23:00Z,42.805,6.029,13.2966,4.59969,2470.03,2020-3-31T08:23:38Z
2020-03-31T06:26:03Z,42.805,6.029,13.2963,4.59969,2470.017,2020-3-31T08:26:41Z
2020-03-31T06:29:06Z,42.805,6.029,13.2968,4.59968,2469.984,2020-3-31T08:29:44Z
2020-03-31T06:32:09Z,42.805,6.029,13.2965,4.59970,2469.993,2020-3-31T08:32:48Z
2020-03-31T06:35:12Z,42.805,6.029,13.2965,4.59970,2469.993,2020-3-31T08:35:51Z
2020-03-31T06:38:16Z,42.805,6.029,13.2965,4.59971,2470.03,2020-3-31T08:38:54Z
2020-03-31T06:41:19Z,42.805,6.029,13.2966,4.59972,2469.993,2020-3-31T08:41:57Z
2020-03-31T06:44:22Z,42.805,6.029,13.2966,4.59969,2470.007,2020-3-31T08:45:01Z
2020-03-31T06:47:25Z,42.805,6.029,13.2963,4.59970,2469.993,2020-3-31T08:48:04Z
2020-03-31T06:50:29Z,42.805,6.029,13.2965,4.59970,2470.017,2020-3-31T08:51:07Z
2020-03-31T06:53:32Z,42.805,6.029,13.2964,4.59971,2470.04,2020-3-31T08:54:10Z
2020-03-31T06:56:35Z,42.805,6.029,13.2968,4.59969,2470.017,2020-3-31T08:57:14Z
2020-03-31T06:59:38Z,42.805,6.029,13.2967,4.59969,2470.017,2020-3-31T09:00:17Z
2020-03-31T07:02:42Z,42.805,6.029,13.2966,4.59968,2470.017,2020-3-31T09:03:20Z
2020-03-31T07:05:45Z,42.805,6.029,13.2966,4.59969,2469.993,2020-3-31T09:06:23Z
2020-03-31T07:08:48Z,42.805,6.029,13.2962,4.59969,2470.03,2020-3-31T09:09:27Z
2020-03-31T07:11:51Z,42.805,6.029,13.2962,4.59970,2469.993,2020-3-31T09:12:30Z
2020-03-31T07:14:55Z,42.805,6.029,13.2968,4.59969,2470.04,2020-3-31T09:15:33Z
2020-03-31T07:17:58Z,42.805,6.029,13.2964,4.59969,2470.053,2020-3-31T09:18:36Z
2020-03-31T07:21:01Z,42.805,6.029,13.2964,4.59970,2469.993,2020-3-31T09:21:40Z
2020-03-31T07:24:04Z,42.805,6.029,13.2965,4.59970,2470.007,2020-3-31T09:24:43Z
2020-03-31T07:27:08Z,42.805,6.029,13.2965,4.59970,2470.017,2020-3-31T09:27:46Z
2020-03-31T07:30:11Z,42.805,6.029,13.2965,4.59970,2470.04,2020-3-31T09:30:49Z
2020-03-31T07:33:14Z,42.805,6.029,13.2965,4.59968,2470.007,2020-3-31T09:33:53Z
2020-03-31T07:36:17Z,42.805,6.029,13.2966,4.59970,2469.993,2020-3-31T09:36:56Z
2020-03-31T07:39:21Z,42.805,6.029,13.2967,4.59971,2469.97,2020-3-31T09:39:59Z
2020-03-31T07:42:24Z,42.805,6.029,13.2963,4.59968,2470.03,2020-3-31T09:43:02Z
2020-03-31T07:45:27Z,42.805,6.029,13.2965,4.59969,2470.007,2020-3-31T09:46:06Z
2020-03-31T07:48:30Z,42.805,6.029,13.2963,4.59969,2470.007,2020-3-31T09:49:09Z
2020-03-31T07:51:34Z,42.805,6.029,13.2966,4.59971,2470.017,2020-3-31T09:52:12Z
2020-03-31T07:54:37Z,42.805,6.029,13.2966,4.59969,2470.017,2020-3-31T09:55:15Z
2020-03-31T07:57:40Z,42.805,6.029,13.2969,4.59969,2470.017,2020-3-31T09:58:18Z
2020-03-31T08:00:43Z,42.805,6.029,13.2966,4.59969,2470.053,2020-3-31T10:01:22Z
2020-03-31T08:03:47Z,42.805,6.029,13.2965,4.59970,2470.017,2020-3-31T10:04:25Z
2020-03-31T08:06:50Z,42.805,6.029,13.2968,4.59968,2470.017,2020-3-31T10:07:28Z
2020-03-31T08:09:53Z,42.805,6.029,13.2965,4.59969,2470.063,2020-3-31T10:10:31Z
2020-03-31T08:12:56Z,42.805,6.029,13.2968,4.59970,2470.017,2020-3-31T10:13:35Z
2020-03-31T08:16:00Z,42.805,6.029,13.2966,4.59969,2470.04,2020-3-31T10:16:38Z
2020-03-31T08:19:03Z,42.805,6.029,13.2969,4.59969,2470.04,2020-3-31T10:19:41Z
2020-03-31T08:22:06Z,42.805,6.029,13.2967,4.59970,2470.04,2020-3-31T10:22:45Z
2020-03-31T08:25:09Z,42.805,6.029,13.2968,4.59971,2470.053,2020-3-31T10:25:48Z
2020-03-31T08:28:13Z,42.805,6.029,13.2964,4.59970,2470.017,2020-3-31T10:28:51Z
2020-03-31T08:31:16Z,42.805,6.029,13.2969,4.59969,2470.053,2020-3-31T10:31:54Z
2020-03-31T08:34:19Z,42.805,6.029,13.2966,4.59971,2470.04,2020-3-31T10:34:58Z
2020-03-31T08:37:22Z,42.805,6.029,13.2967,4.59972,2470.04,2020-3-31T10:38:01Z
2020-03-31T08:40:26Z,42.805,6.029,13.2966,4.59970,2470.04,2020-3-31T10:41:04Z
2020-03-31T08:43:29Z,42.805,6.029,13.2966,4.59970,2470.04,2020-3-31T10:44:07Z
2020-03-31T08:46:32Z,42.805,6.029,13.2962,4.59970,2470.053,2020-3-31T10:47:10Z
2020-03-31T08:49:35Z,42.805,6.029,13.2966,4.59971,2470.063,2020-3-31T10:50:14Z
2020-03-31T08:52:39Z,42.805,6.029,13.2962,4.59970,2470.04,2020-3-31T10:53:17Z
2020-03-31T08:55:42Z,42.805,6.029,13.2964,4.59971,2470.077,2020-3-31T10:56:20Z
2020-03-31T08:58:45Z,42.805,6.029,13.2963,4.59971,2470.053,2020-3-31T10:59:24Z
2020-03-31T09:01:48Z,42.805,6.029,13.2964,4.59971,2470.04,2020-3-31T11:02:27Z
2020-03-31T09:04:52Z,42.805,6.029,13.2967,4.59970,2470.049,2020-3-31T11:05:30Z
2020-03-31T09:07:55Z,42.805,6.029,13.2965,4.59970,2470.077,2020-3-31T11:08:33Z
2020-03-31T09:10:58Z,42.805,6.029,13.2968,4.59969,2470.077,2020-3-31T11:11:37Z
2020-03-31T09:14:02Z,42.805,6.029,13.2967,4.59971,2470.077,2020-3-31T11:14:40Z
2020-03-31T09:17:05Z,42.805,6.029,13.2965,4.59971,2470.063,2020-3-31T11:17:43Z
2020-03-31T09:20:08Z,42.805,6.029,13.2964,4.59970,2470.087,2020-3-31T11:20:46Z
2020-03-31T09:23:11Z,42.805,6.029,13.2965,4.59970,2470.063,2020-3-31T11:23:50Z
2020-03-31T09:26:15Z,42.805,6.029,13.2968,4.59969,2470.04,2020-3-31T11:26:53Z
2020-03-31T09:29:18Z,42.805,6.029,13.2966,4.59971,2470.04,2020-3-31T11:29:56Z
2020-03-31T09:32:21Z,42.805,6.029,13.2964,4.59971,2470.063,2020-3-31T11:32:59Z
2020-03-31T09:35:24Z,42.805,6.029,13.2968,4.59973,2470.063,2020-3-31T11:36:03Z
2020-03-31T09:38:28Z,42.805,6.029,13.2966,4.59972,2470.077,2020-3-31T11:39:06Z
2020-03-31T09:41:31Z,42.805,6.029,13.2967,4.59971,2470.077,2020-3-31T11:42:09Z
2020-03-31T09:44:34Z,42.805,6.029,13.2966,4.59970,2470.063,2020-3-31T11:45:12Z
2020-03-31T09:47:37Z,42.805,6.029,13.2968,4.59970,2470.04,2020-3-31T11:48:16Z
2020-03-31T09:50:41Z,42.805,6.029,13.2964,4.59971,2470.077,2020-3-31T11:51:19Z
2020-03-31T09:53:44Z,42.805,6.029,13.2963,4.59973,2470.087,2020-3-31T11:54:22Z
2020-03-31T09:56:47Z,42.805,6.029,13.2968,4.59972,2470.077,2020-3-31T11:57:26Z
2020-03-31T09:59:50Z,42.805,6.029,13.2961,4.59970,2470.063,2020-3-31T12:00:29Z
2020-03-31T10:02:54Z,42.805,6.029,13.2967,4.59972,2470.063,2020-3-31T12:03:32Z
2020-03-31T10:05:57Z,42.805,6.029,13.2967,4.59971,2470.063,2020-3-31T12:06:35Z
2020-03-31T10:09:00Z,42.805,6.029,13.2965,4.59972,2470.087,2020-3-31T12:09:38Z
2020-03-31T10:12:03Z,42.805,6.029,13.2967,4.59971,2470.063,2020-3-31T12:12:42Z
2020-03-31T10:15:06Z,42.805,6.029,13.2968,4.59970,2470.1,2020-3-31T12:15:45Z
2020-03-31T10:18:10Z,42.805,6.029,13.2964,4.59972,2470.063,2020-3-31T12:18:48Z
2020-03-31T10:21:13Z,42.805,6.029,13.2968,4.59971,2470.063,2020-3-31T12:21:51Z
2020-03-31T10:24:16Z,42.805,6.029,13.2966,4.59973,2470.04,2020-3-31T12:24:55Z
2020-03-31T10:27:20Z,42.805,6.029,13.2965,4.59973,2470.063,2020-3-31T12:27:58Z
2020-03-31T10:30:23Z,42.805,6.029,13.2965,4.59973,2470.077,2020-3-31T12:31:01Z
2020-03-31T10:33:26Z,42.805,6.029,13.2967,4.59971,2470.087,2020-3-31T12:34:04Z
2020-03-31T10:36:29Z,42.805,6.029,13.2970,4.59971,2470.063,2020-3-31T12:37:08Z
2020-03-31T10:39:33Z,42.805,6.029,13.2963,4.59971,2470.04,2020-3-31T12:40:11Z
2020-03-31T10:42:36Z,42.805,6.029,13.2966,4.59971,2470.087,2020-3-31T12:43:14Z
2020-03-31T10:45:39Z,42.805,6.029,13.2968,4.59972,2470.053,2020-3-31T12:46:18Z
2020-03-31T10:48:42Z,42.805,6.029,13.2967,4.59971,2470.063,2020-3-31T12:49:21Z
2020-03-31T10:51:46Z,42.805,6.029,13.2968,4.59973,2470.063,2020-3-31T12:52:24Z
2020-03-31T10:54:49Z,42.805,6.029,13.2968,4.59974,2470.063,2020-3-31T12:55:27Z
2020-03-31T10:57:52Z,42.805,6.029,13.2965,4.59970,2470.077,2020-3-31T12:58:31Z
2020-03-31T11:00:55Z,42.805,6.029,13.2969,4.59970,2470.1,2020-3-31T13:01:34Z
2020-03-31T11:03:59Z,42.805,6.029,13.2969,4.59971,2470.063,2020-3-31T13:04:37Z
2020-03-31T11:07:02Z,42.805,6.029,13.2967,4.59973,2470.087,2020-3-31T13:07:40Z
2020-03-31T11:10:05Z,42.805,6.029,13.2967,4.59973,2470.087,2020-3-31T13:10:44Z
2020-03-31T11:13:08Z,42.805,6.029,13.2965,4.59972,2470.063,2020-3-31T13:13:47Z
2020-03-31T11:16:12Z,42.805,6.029,13.2967,4.59973,2470.1,2020-3-31T13:16:50Z
2020-03-31T11:19:15Z,42.805,6.029,13.2965,4.59971,2470.087,2020-3-31T13:19:53Z
2020-03-31T11:22:18Z,42.805,6.029,13.2968,4.59971,2470.063,2020-3-31T13:22:57Z
2020-03-31T11:25:21Z,42.805,6.029,13.2972,4.59970,2470.1,2020-3-31T13:26:00Z
2020-03-31T11:28:25Z,42.805,6.029,13.2967,4.59973,2470.063,2020-3-31T13:29:03Z
2020-03-31T11:31:28Z,42.805,6.029,13.2967,4.59973,2470.087,2020-3-31T13:32:06Z
2020-03-31T11:34:31Z,42.805,6.029,13.2967,4.59973,2470.11,2020-3-31T13:35:10Z
2020-03-31T11:37:34Z,42.805,6.029,13.2968,4.59973,2470.087,2020-3-31T13:38:13Z
2020-03-31T11:40:38Z,42.805,6.029,13.2966,4.59972,2470.087,2020-3-31T13:41:16Z
2020-03-31T11:43:41Z,42.805,6.029,13.2971,4.59971,2470.04,2020-3-31T13:44:19Z
2020-03-31T11:46:44Z,42.805,6.029,13.2967,4.59974,2470.1,2020-3-31T13:47:22Z
2020-03-31T11:49:47Z,42.805,6.029,13.2966,4.59971,2470.087,2020-3-31T13:50:26Z
2020-03-31T11:52:51Z,42.805,6.029,13.2967,4.59972,2470.077,2020-3-31T13:53:29Z
2020-03-31T11:55:54Z,42.805,6.029,13.2963,4.59973,2470.077,2020-3-31T13:56:32Z
2020-03-31T11:58:57Z,42.805,6.029,13.2966,4.59971,2470.063,2020-3-31T13:59:35Z
2020-03-31T12:02:00Z,42.805,6.029,13.2967,4.59973,2470.077,2020-3-31T14:02:39Z
2020-03-31T12:05:03Z,42.805,6.029,13.2968,4.59971,2470.1,2020-3-31T14:05:42Z
2020-03-31T12:08:07Z,42.805,6.029,13.2967,4.59971,2470.077,2020-3-31T14:08:45Z
2020-03-31T12:11:10Z,42.805,6.029,13.2969,4.59971,2470.077,2020-3-31T14:11:48Z
2020-03-31T12:14:13Z,42.805,6.029,13.2967,4.59973,2470.04,2020-3-31T14:14:52Z
2020-03-31T12:17:16Z,42.805,6.029,13.2967,4.59971,2470.1,2020-3-31T14:17:55Z
2020-03-31T12:20:20Z,42.805,6.029,13.2968,4.59972,2470.077,2020-3-31T14:20:58Z
2020-03-31T12:23:23Z,42.805,6.029,13.2966,4.59972,2470.087,2020-3-31T14:24:01Z
2020-03-31T12:26:26Z,42.805,6.029,13.2964,4.59971,2470.04,2020-3-31T14:27:05Z
2020-03-31T12:29:29Z,42.805,6.029,13.2965,4.59970,2470.087,2020-3-31T14:30:08Z
2020-03-31T12:32:33Z,42.805,6.029,13.2965,4.59970,2470.063,2020-3-31T14:33:11Z
2020-03-31T12:35:36Z,42.805,6.029,13.2967,4.59969,2470.063,2020-3-31T14:36:14Z
2020-03-31T12:38:39Z,42.805,6.029,13.2967,4.59968,2470.017,2020-3-31T14:39:17Z
2020-03-31T12:41:42Z,42.805,6.029,13.2968,4.59968,2470.063,2020-3-31T14:42:21Z
2020-03-31T12:44:46Z,42.805,6.029,13.2968,4.59970,2470.063,2020-3-31T14:45:24Z
2020-03-31T12:47:49Z,42.805,6.029,13.2968,4.59970,2470.04,2020-3-31T14:48:27Z
2020-03-31T12:50:52Z,42.805,6.029,13.2967,4.59969,2470.063,2020-3-31T14:51:31Z
2020-03-31T12:53:55Z,42.805,6.029,13.2961,4.59968,2470.063,2020-3-31T14:54:34Z
2020-03-31T12:56:59Z,42.805,6.029,13.2968,4.59968,2470.04,2020-3-31T14:57:37Z
2020-03-31T13:00:02Z,42.805,6.029,13.2968,4.59968,2470.063,2020-3-31T15:00:40Z
2020-03-31T13:03:05Z,42.805,6.029,13.2967,4.59967,2470.053,2020-3-31T15:03:44Z
2020-03-31T13:06:08Z,42.805,6.029,13.2965,4.59970,2470.049,2020-3-31T15:06:47Z
2020-03-31T13:09:12Z,42.805,6.029,13.2967,4.59968,2470.1,2020-3-31T15:09:50Z
2020-03-31T13:12:15Z,42.805,6.029,13.2965,4.59970,2470.063,2020-3-31T15:12:53Z
2020-03-31T13:15:18Z,42.805,6.029,13.2964,4.59968,2470.1,2020-3-31T15:15:57Z
2020-03-31T13:18:21Z,42.805,6.029,13.2963,4.59968,2470.063,2020-3-31T15:19:00Z
2020-03-31T13:21:25Z,42.805,6.029,13.2964,4.59968,2470.063,2020-3-31T15:22:03Z
2020-03-31T13:24:28Z,42.805,6.029,13.2963,4.59968,2470.077,2020-3-31T15:25:06Z
2020-03-31T13:27:31Z,42.805,6.029,13.2967,4.59968,2470.04,2020-3-31T15:28:09Z
2020-03-31T13:30:34Z,42.805,6.029,13.2965,4.59968,2470.053,2020-3-31T15:31:13Z
2020-03-31T13:33:38Z,42.805,6.029,13.2967,4.59968,2470.063,2020-3-31T15:34:16Z
2020-03-31T13:36:41Z,42.805,6.029,13.2967,4.59967,2470.077,2020-3-31T15:37:19Z
2020-03-31T13:39:44Z,42.805,6.029,13.2969,4.59967,2470.053,2020-3-31T15:40:23Z
2020-03-31T13:42:48Z,42.805,6.029,13.2968,4.59968,2470.04,2020-3-31T15:43:26Z
2020-03-31T13:45:51Z,42.805,6.029,13.2968,4.59968,2470.003,2020-3-31T15:46:29Z
2020-03-31T13:48:54Z,42.805,6.029,13.2964,4.59968,2470.1,2020-3-31T15:49:32Z
2020-03-31T13:51:57Z,42.805,6.029,13.2963,4.59968,2470.077,2020-3-31T15:52:36Z
2020-03-31T13:55:00Z,42.805,6.029,13.2965,4.59968,2470.053,2020-3-31T15:55:39Z
2020-03-31T13:58:04Z,42.805,6.029,13.2968,4.59968,2470.017,2020-3-31T15:58:42Z
2020-03-31T14:01:07Z,42.805,6.029,13.2967,4.59968,2470.017,2020-3-31T16:01:45Z
2020-03-31T14:04:10Z,42.805,6.029,13.2969,4.59968,2470.017,2020-3-31T16:04:49Z
2020-03-31T14:07:14Z,42.805,6.029,13.2963,4.59968,2470.017,2020-3-31T16:07:52Z
2020-03-31T14:10:17Z,42.805,6.029,13.2964,4.59968,2470.04,2020-3-31T16:10:55Z
2020-03-31T14:13:20Z,42.805,6.029,13.2962,4.59968,2470.03,2020-3-31T16:13:58Z
2020-03-31T14:16:23Z,42.805,6.029,13.2968,4.59968,2469.993,2020-3-31T16:17:02Z
2020-03-31T14:19:27Z,42.805,6.029,13.2967,4.59968,2470.03,2020-3-31T16:20:05Z
2020-03-31T14:22:30Z,42.805,6.029,13.2967,4.59967,2470.04,2020-3-31T16:23:08Z
2020-03-31T14:25:33Z,42.805,6.029,13.2965,4.59968,2470.03,2020-3-31T16:26:12Z
2020-03-31T14:28:36Z,42.805,6.029,13.2964,4.59968,2470.04,2020-3-31T16:29:15Z
2020-03-31T14:31:40Z,42.805,6.029,13.2967,4.59967,2470.03,2020-3-31T16:32:18Z
2020-03-31T14:34:43Z,42.805,6.029,13.2964,4.59968,2469.993,2020-3-31T16:35:21Z
2020-03-31T14:37:46Z,42.805,6.029,13.2966,4.59967,2470.04,2020-3-31T16:38:25Z
2020-03-31T14:40:49Z,42.805,6.029,13.2968,4.59968,2470.03,2020-3-31T16:41:28Z
2020-03-31T14:43:53Z,42.805,6.029,13.2964,4.59968,2470.017,2020-3-31T16:44:31Z
2020-03-31T14:46:56Z,42.805,6.029,13.2966,4.59968,2470.053,2020-3-31T16:47:34Z
2020-03-31T14:49:59Z,42.805,6.029,13.2968,4.59968,2470.017,2020-3-31T16:50:38Z
2020-03-31T14:53:02Z,42.805,6.029,13.2966,4.59968,2470.017,2020-3-31T16:53:41Z
2020-03-31T14:56:06Z,42.805,6.029,13.2961,4.59968,2470.017,2020-3-31T16:56:44Z
2020-03-31T14:59:09Z,42.805,6.029,13.2961,4.59967,2470.053,2020-3-31T16:59:47Z
2020-03-31T15:02:12Z,42.805,6.029,13.2967,4.59967,2470.03,2020-3-31T17:02:50Z
2020-03-31T15:05:15Z,42.805,6.029,13.2964,4.59968,2470.017,2020-3-31T17:05:54Z
2020-03-31T15:08:18Z,42.805,6.029,13.2967,4.59967,2470.04,2020-3-31T17:08:57Z
2020-03-31T15:11:22Z,42.805,6.029,13.2964,4.59968,2470.017,2020-3-31T17:12:00Z
2020-03-31T15:14:25Z,42.805,6.029,13.2967,4.59967,2469.993,2020-3-31T17:15:04Z